Location: Le Coudray
(47.1963°N, 0.1167°W)
Time: 04:04:37
(UTC+00:00)

Daily predictions for brighter satellites

Satellite Brightness Start Highest point End
(mag) Time Altitude Azimuth Time Altitude Azimuth Time Altitude Azimuth
ATLAS CENTAUR R/B 3.7 00:07:30 16° WSW 00:12:09 83° NW 00:27:02 10° NE
Cosmos 1825 3.9 00:13:02 20° ESE 00:13:55 22° E 00:16:53 10° NE
Cosmos 1812 Rocket 3.8 00:14:01 10° NNW 00:18:16 55° W 00:19:25 41° SW
Cosmos 990 Rocket 4.3 00:14:31 10° NNW 00:19:42 61° ENE 00:22:38 25° SE
Cosmos 1408 3.2 00:19:18 39° ESE 00:19:53 43° E 00:23:25 10° NNE
SL-16 R/B 2.3 00:19:56 28° SW 00:23:00 71° WNW 00:28:42 10° NNE
Cosmos 405 Rocket 3.7 00:23:36 29° ESE 00:24:17 32° E 00:27:36 10° NNE
USA 229 DEB 3.7 00:22:35 32° S 00:25:33 61° ESE 00:32:15 10° NE
USA 229 3.7 00:22:42 32° S 00:25:39 61° ESE 00:32:21 10° NE
Cosmos 2058 4.5 00:24:22 21° ESE 00:25:44 25° E 00:29:05 10° NE
Cosmos 2221 4.2 00:22:10 10° NNE 00:25:50 26° ENE 00:28:23 15° ESE
Cosmos 2237 Rocket 3.8 00:21:29 10° WSW 00:26:19 29° NW 00:31:12 10° N
X-37B 2.9 00:28:47 16° E 00:28:47 16° E 00:29:33 10° E
Cosmos 1898 Rocket 3.8 00:27:47 10° NNW 00:33:01 63° ENE 00:36:10 23° SE
Cosmos 1937 Rocket 4.3 00:28:04 10° NNW 00:33:14 48° ENE 00:37:19 16° SE
NOSS 8 (F) 4.0 00:33:59 79° SSE 00:34:02 80° SE 00:37:01 10° NE
NOSS 3-1 (C) 3.3 00:31:10 28° SW 00:34:14 82° NW 00:40:38 10° NE
Cosmos 2369 Rocket 2.3 00:29:39 10° NNW 00:35:26 80° ENE 00:38:58 24° SSE
Cosmos 1356 3.3 00:37:29 62° SE 00:37:52 70° E 00:41:16 10° NNE
CREW DRAGON DEMO-1 DEB 4.4 00:40:05 21° ENE 00:40:05 21° ENE 00:41:06 10° ENE
SJ 16-02 2.0 00:35:09 10° NW 00:39:13 38° WSW 00:40:01 34° SW
GP-B 3.9 00:36:11 10° NNW 00:40:22 41° W 00:41:51 30° SW
NOSS 2-3 (E) 3.6 00:42:31 35° SW 00:44:15 77° NW 00:49:10 10° NE
NOSS 3-1 (A) 3.2 00:42:41 34° SSW 00:45:11 74° SE 00:51:28 10° NE
USA 215 4.0 00:40:27 10° NE 00:46:46 54° NNW 00:53:05 10° W
Cosmos 1825 Rocket 3.7 00:45:41 39° SSW 00:47:12 67° WNW 00:51:39 10° N
ATLAS 5 CENTAUR R/B 3.5 00:48:04 14° ESE 00:48:42 14° ESE 00:50:54 10° ENE
Cosmos 2263 4.3 00:43:22 10° NNW 00:49:05 76° ENE 00:53:06 20° SE
CZ-4 R/B 4.1 00:47:03 10° NNE 00:51:39 55° E 00:53:33 32° SSE
USA 308 4.5 00:53:26 21° SE 00:53:27 21° SE 00:56:38 10° E
Cosmos 1932 4.4 00:48:02 10° NW 00:54:18 84° NE 01:00:03 12° SE
CZ-3B R/B 4.3 00:43:54 10° W 00:55:57 42° N 00:59:36 10° ENE
NOSS 8 (H) 4.0 01:00:24 70° SSW 01:00:42 86° SE 01:03:39 10° NE
Helios 1A 3.0 01:00:06 33° SSE 01:01:54 80° ENE 01:06:07 10° NNW
Cosmos 1606 4.0 00:58:27 10° N 01:02:00 34° ENE 01:04:12 19° SE
Cosmos 468 Rocket 3.9 01:00:57 33° SSW 01:03:20 84° WNW 01:08:36 10° NNE
SL-16 R/B 3.2 00:59:52 10° SE 01:05:48 52° ENE 01:11:46 10° N
Cosmos 858 Rocket 4.5 01:05:23 10° NNW 01:10:43 89° ENE 01:14:06 23° SSE
USA 305 3.9 01:10:32 29° SSE 01:11:09 30° SE 01:14:52 10° ENE
USA 290 4.2 01:11:15 18° ESE 01:11:58 19° ESE 01:14:22 10° NE
Cosmos 1953 Rocket 3.9 01:10:29 34° SW 01:12:08 56° WNW 01:16:29 10° N
Lacrosse 4 Rocket 2.9 01:10:27 10° NNW 01:14:16 36° NE 01:18:01 10° ESE
Cosmos 2098 Rocket 3.5 01:15:09 27° S 01:18:03 72° E 01:22:29 10° NNE
Cosmos 1763 Rocket 3.6 01:15:44 29° SW 01:18:18 64° WNW 01:23:26 10° NNE
BREEZE-M R/B 3.5 01:18:12 27° SSE 01:18:40 28° SE 01:22:21 10° E
Cosmos 1437 Rocket 2.7 01:17:13 10° NNW 01:21:05 67° W 01:22:18 40° SSW
Resurs 1-4 Rocket 2.6 01:16:00 10° NNE 01:21:12 51° E 01:24:24 22° SSE
USA 267 4.0 01:19:19 26° SSW 01:21:27 31° SW 01:27:10 10° WNW
Cosmos 1892 4.1 01:21:02 23° WSW 01:22:21 28° WNW 01:25:45 10° NNW
OE (NEXTSAT) 4.3 01:22:34 48° SW 01:23:12 59° SSE 01:26:36 10° E
SL-4 R/B 3.1 01:21:08 10° WNW 01:24:44 40° N 01:28:07 10° ENE
Cosmos 1943 Rocket 3.5 01:24:03 10° NW 01:28:09 22° W 01:29:31 20° WSW
Cosmos 1842 Rocket 3.5 01:26:51 10° NNW 01:31:12 71° W 01:33:14 30° S
NOSS 2-2 (D) 4.1 01:30:21 27° SSE 01:31:13 31° ESE 01:34:27 10° ENE
NPP 4.2 01:27:07 10° NNE 01:32:23 51° E 01:35:57 20° S
ADEOS II 3.5 01:28:03 10° NNE 01:32:42 31° E 01:36:50 12° SSE
USA 306 3.4 01:32:05 32° S 01:33:26 42° SE 01:37:27 10° ENE
Lacrosse 5 rocket 3.8 01:30:58 10° NW 01:33:47 21° NNE 01:36:38 10° ENE
Cosmos 921 Rocket 3.0 01:32:38 31° S 01:34:32 69° ESE 01:38:43 10° NNE
Exosat Rocket 4.1 01:30:28 22° SW 01:34:35 60° WNW 01:39:46 10° NNE
Meteor 2-8 Rocket 4.4 01:28:29 10° NNW 01:34:38 79° W 01:38:53 21° S
FALCON 9 DEB 3.1 01:32:12 10° WNW 01:35:37 82° NNE 01:39:00 10° ESE
Cosmos 1943 3.3 01:33:25 25° SW 01:36:45 73° WNW 01:42:26 10° NNE
CZ-2D R/B 2.2 01:34:44 10° NNE 01:39:58 71° ESE 01:43:15 23° S
MOZ.5/SAFIR/RUBIN 5/SL-8 4.0 01:38:05 28° SSW 01:40:24 54° W 01:45:06 10° NNW
Cosmos 1603 4.0 01:41:52 22° SW 01:45:30 61° WNW 01:51:08 10° NNE
IDEFIX/ARIANE 42P 4.5 01:42:51 10° NE 01:46:58 23° E 01:51:03 10° SE
Cosmos 2151 3.6 01:44:56 20° SSE 01:47:36 51° E 01:51:41 10° NNE
Cosmos 1825 3.5 01:47:48 22° WSW 01:49:15 28° WNW 01:52:34 10° NNW
AQUA 4.2 01:47:16 10° NNE 01:52:00 60° E 01:55:17 20° S
Cosmos 1076 Rocket 3.4 01:49:45 27° SSW 01:52:01 82° W 01:56:17 10° N
Cosmos 1437 2.2 01:52:14 10° NNW 01:55:02 72° W 01:55:51 40° S
Cosmos 540 Rocket 3.9 01:55:00 21° SW 01:58:11 52° WNW 02:03:12 10° NNE
Cosmos 1242 Rocket 3.1 01:55:20 10° NNW 01:58:44 41° W 02:00:05 28° SW
DELTA 2 R/B (1) 4.1 01:57:41 20° SW 02:00:54 37° S 02:05:58 10° ESE
Cosmos 2058 4.1 02:00:33 20° WSW 02:02:30 29° WNW 02:06:09 10° N
X-37B 0.7 02:01:04 21° WSW 02:02:55 52° S 02:06:01 10° ESE
Cosmos 2221 3.5 01:59:36 10° NNW 02:03:23 31° W 02:05:12 22° SW
BREEZE-M DEB (TANK) 1.9 02:02:46 10° WNW 02:05:27 56° N 02:07:43 10° E
Cosmos 841 Rocket 3.9 02:03:07 20° SW 02:06:29 52° WNW 02:11:32 10° NNE
IRS-1D 4.3 02:01:49 10° NNE 02:06:46 46° E 02:11:14 12° S
SL-16 R/B 4.5 02:04:37 10° WNW 02:08:12 17° NW 02:11:46 10° N
NOSS 2-2 (E) 3.0 02:08:02 25° SW 02:09:57 78° NW 02:13:47 10° NE
Cosmos 1553 Rocket 4.3 02:03:53 10° N 02:10:11 68° ENE 02:16:21 10° SSE
Cosmos 2292 Rocket 3.5 02:09:53 17° SSE 02:11:51 43° E 02:14:42 10° NNE
CREW DRAGON DEMO-1 DEB 4.2 02:10:18 10° WNW 02:12:31 29° N 02:14:44 10° ENE
FALCON 9 DEB 3.9 02:11:27 10° NW 02:14:31 50° NNE 02:17:34 10° E
GPS 2-04 Rocket1 4.5 02:15:42 15° S 02:15:42 15° S 02:17:43 10° SE
Cosmos 1782 3.6 02:12:52 10° N 02:16:48 52° ENE 02:20:42 10° SSE
USA 307 2.8 02:14:11 20° SW 02:17:03 78° SE 02:21:19 10° ENE
USA 281 3.8 02:11:59 10° SE 02:18:24 60° ENE 02:24:52 10° NNW
Cosmos 1271 Rocket 4.2 02:15:10 10° N 02:18:38 35° ENE 02:22:05 10° SE
Cosmos 2369 Rocket 3.8 02:15:07 10° WNW 02:18:43 17° W 02:20:43 15° WSW
Cosmos 2026 Rocket 4.1 02:16:00 17° SSW 02:20:57 71° W 02:27:20 10° N
NOSS 2-2 (C) 3.1 02:21:26 21° SW 02:23:37 74° NW 02:27:23 10° NE
Aureole 3 Rocket 3.9 02:21:28 10° NNW 02:25:08 36° W 02:28:38 16° SSW
CZ-4C R/B 4.3 02:22:13 10° SE 02:25:29 40° ENE 02:28:46 10° N
ERBS 3.7 02:24:39 16° S 02:26:21 25° SE 02:29:04 10° ENE
Helios 1B rocket 2.9 02:23:39 10° N 02:27:37 49° WNW 02:30:26 18° SW
Cosmos 1633 3.6 02:27:25 18° SW 02:29:19 31° WNW 02:32:30 10° N
Cosmos 1328 Rocket 4.3 02:26:30 10° N 02:30:47 52° ENE 02:35:04 10° SSE
FALCON 9 DEB 2.9 02:28:24 10° WNW 02:31:31 81° NNE 02:34:35 10° ESE
SL-19 R/B 4.2 02:27:02 10° N 02:32:16 70° WNW 02:36:51 15° SSW
ATLAS 5 CENTAUR R/B 1.6 02:29:34 17° SW 02:32:32 68° NW 02:37:02 10° NE
USA 308 2.9 02:29:31 15° WSW 02:32:59 85° NNW 02:37:16 10° ENE
Cosmos 2298 Rocket 4.0 02:28:16 10° NNW 02:33:35 68° WSW 02:38:51 10° S
SeaSat 1 3.6 02:31:45 10° NE 02:36:19 36° ESE 02:40:49 10° S
Cosmos 1606 4.4 02:34:44 10° NW 02:37:26 19° W 02:39:10 14° WSW
FALCON 9 DEB 3.1 02:35:16 10° WNW 02:38:23 74° NNE 02:41:30 10° ESE
ADEOS Rocket 3.4 02:33:57 10° S 02:41:10 63° WSW 02:47:45 10° NNW
FALCON 9 DEB 2.8 02:38:40 10° WNW 02:41:47 89° WSW 02:44:52 10° ESE
Cosmos 1933 3.8 02:40:06 10° NNW 02:44:00 44° W 02:47:30 12° SSW
IRIDIUM 104 4.3 02:39:15 10° N 02:44:27 71° W 02:49:38 10° S
Cosmos 2150 Rocket 4.1 02:40:00 10° NNW 02:45:06 58° WSW 02:50:15 10° S
USA 290 3.7 02:44:01 13° WSW 02:46:15 26° WNW 02:49:01 10° N
Cosmos 1833 Rocket 4.5 02:42:57 10° SSE 02:47:30 25° ESE 02:52:02 10° NE
SL-16 R/B 3.4 02:44:57 13° SSW 02:49:39 30° W 02:55:02 10° NW
Meteor 1-28 Rocket 3.3 02:46:03 10° S 02:49:46 56° W 02:53:32 10° NNW
DELTA 2 DEB (DPAF) 4.3 02:46:24 10° S 02:50:46 56° W 02:55:10 10° NNW
USA 305 3.2 02:46:37 10° WSW 02:50:51 65° NNW 02:55:05 10° ENE
Lacrosse 4 Rocket 2.4 02:49:23 10° NW 02:52:48 26° WSW 02:56:08 10° SSW
Cosmos 1125 Rocket 3.6 02:47:50 10° NNW 02:53:01 61° WSW 02:58:12 10° S
IRIDIUM 114 4.5 02:48:27 10° N 02:53:35 59° W 02:58:41 10° SSW
Cosmos 1151 Rocket 3.0 02:50:13 10° NNW 02:54:28 70° W 02:58:41 10° S
Cosmos 2266 Rocket 4.2 02:50:37 10° S 02:56:41 72° E 03:02:43 10° NNE
Meteor 1-29 3.8 02:54:34 10° N 02:57:44 35° WNW 03:00:31 12° SW
CZ-4B R/B 4.4 02:54:06 10° NNE 02:59:12 48° E 03:04:13 10° S
ARIANE 5 R/B 3.2 02:55:30 10° NNE 03:00:22 50° E 03:05:13 10° S
OE (NEXTSAT) 4.2 02:57:09 10° W 03:00:35 70° S 03:04:00 10° ESE
Resurs 1-4 Rocket 3.5 02:56:22 10° N 03:00:44 26° WNW 03:05:05 10° WSW
CZ-4C R/B 2.8 02:56:50 10° S 03:01:26 45° ESE 03:06:54 10° NE
Cosmos 1515 Rocket 4.1 02:57:33 10° N 03:01:57 63° ENE 03:06:21 10° SSE
Cosmos 1766 Rocket 3.7 02:59:16 10° SSW 03:03:41 67° W 03:08:11 10° N
SL-4 R/B 2.1 03:01:03 10° WNW 03:04:39 63° NNE 03:08:04 10° ESE
Cosmos 1408 Rocket 3.9 03:01:54 10° S 03:06:19 69° E 03:10:47 10° NNE
USA 238 DEB 4.4 03:01:30 10° NW 03:08:43 68° NE 03:16:15 10° SE
USA 238 4.4 03:01:37 10° NW 03:08:49 68° NE 03:16:22 10° SE
CENTAUR R/B 3.7 03:01:14 10° NW 03:09:14 69° NE 03:18:05 10° SE
Cosmos 2082 Rocket 4.4 03:06:34 10° SE 03:10:28 20° E 03:14:22 10° NE
ADEOS II 2.8 03:07:34 10° N 03:12:28 40° WNW 03:17:21 10° SW
Cosmos 1862 3.4 03:09:13 10° S 03:13:16 83° E 03:17:21 10° N
USA 306 3.6 03:09:11 10° W 03:13:20 51° NNW 03:17:30 10° NE
Lacrosse 5 rocket 1.4 03:09:47 10° NW 03:13:23 69° NE 03:17:05 10° ESE
Okean 3 Rocket 3.9 03:10:19 10° SSW 03:14:36 53° WNW 03:18:54 10° N
Meteor 2-3 Rocket 4.5 03:14:06 10° SW 03:19:15 38° WNW 03:24:27 10° N
CZ-2D R/B 3.8 03:15:52 10° NNW 03:19:29 19° WNW 03:23:05 10° WSW
ASTEX 1 3.7 03:19:43 10° SSW 03:24:31 50° W 03:29:19 10° NNW
Cosmos 1655 Rocket 4.1 03:18:31 10° SSW 03:24:40 65° WNW 03:30:54 10° N
IDEFIX/ARIANE 42P 2.9 03:21:46 10° N 03:26:53 53° WNW 03:31:56 10° SW
